2021/09/09 23:27:52+0000,-41.16,-48.71,-33.32,-48.70,-50.77,-51.37
2021/09/09 23:28:44+0000,-41.12,-48.10,-33.67,-49.99,-50.58,-51.52
2021/09/09 23:29:37+0000,-41.42,-48.59,-32.45,-49.73,-51.35,-51.17
2021/09/09 23:30:29+0000,-41.90,-48.09,-33.16,-49.37,-50.40,-51.95
2021/09/09 23:31:29+0000,-41.92,-48.55,-33.77,-49.63,-50.95,-51.33
2021/09/09 23:32:21+0000,-41.61,-48.13,-33.28,-49.66,-50.70,-51.53
2021/09/09 23:33:14+0000,-42.19,-47.63,-33.71,-49.65,-51.07,-51.19
2021/09/09 23:34:06+0000,-42.26,-48.14,-33.00,-50.09,-51.59,-51.12
2021/09/09 23:34:58+0000,-41.35,-48.31,-32.43,-49.12,-51.16,-51.66
2021/09/09 23:35:50+0000,-41.62,-48.06,-33.19,-49.55,-50.67,-51.20
2021/09/09 23:36:42+0000,-41.57,-48.70,-32.17,-49.55,-50.84,-51.15
2021/09/09 23:37:34+0000,-41.35,-47.76,-33.28,-50.31,-50.40,-51.81
2021/09/09 23:38:26+0000,-41.50,-47.65,-32.61,-48.79,-51.13,-51.16
2021/09/09 23:39:18+0000,-41.31,-47.84,-32.69,-50.42,-50.37,-51.38
2021/09/09 23:40:10+0000,-40.67,-48.34,-32.83,-50.52,-50.86,-51.39
2021/09/09 23:41:10+0000,-41.35,-48.96,-32.40,-49.43,-50.89,-51.62
2021/09/09 23:42:02+0000,-41.06,-48.97,-32.96,-48.24,-50.87,-51.87
2021/09/09 23:42:54+0000,-40.62,-48.61,-33.14,-47.45,-50.94,-51.15
2021/09/09 23:43:46+0000,-41.51,-48.48,-32.51,-48.98,-50.81,-50.87
2021/09/09 23:44:38+0000,-41.37,-47.81,-31.82,-48.90,-50.82,-51.27
2021/09/09 23:45:30+0000,-41.46,-48.60,-32.69,-48.41,-50.36,-51.01
2021/09/09 23:46:23+0000,-41.21,-48.17,-32.14,-48.18,-50.36,-51.10
2021/09/09 23:47:15+0000,-40.74,-47.80,-32.63,-48.76,-50.33,-51.94
2021/09/09 23:48:07+0000,-41.08,-48.48,-32.87,-49.06,-50.50,-51.21
2021/09/09 23:48:59+0000,-41.07,-48.68,-32.54,-48.03,-50.47,-51.79
2021/09/09 23:49:51+0000,-41.35,-47.96,-33.42,-47.88,-50.22,-51.63
2021/09/09 23:50:43+0000,-41.73,-48.53,-33.33,-48.37,-50.30,-51.77
2021/09/09 23:51:43+0000,-41.84,-48.03,-32.43,-48.91,-50.62,-51.24
2021/09/09 23:52:35+0000,-42.10,-47.99,-32.58,-49.25,-50.44,-51.34
2021/09/09 23:53:27+0000,-42.72,-48.04,-32.54,-48.66,-50.32,-51.16
2021/09/09 23:54:19+0000,-42.83,-47.45,-32.62,-48.99,-50.58,-51.69
2021/09/09 23:55:11+0000,-42.67,-48.88,-32.53,-49.06,-50.06,-51.59
2021/09/09 23:56:03+0000,-43.27,-48.20,-33.25,-48.47,-50.61,-51.09
2021/09/09 23:56:55+0000,-40.75,-48.75,-33.00,-48.00,-50.42,-51.67
2021/09/09 23:57:47+0000,-43.23,-48.08,-32.25,-48.85,-50.25,-51.25
2021/09/09 23:58:40+0000,-41.27,-48.08,-32.44,-48.52,-50.39,-51.42
2021/09/09 23:59:32+0000,-40.33,-48.55,-32.83,-48.36,-50.23,-51.22
2021/09/10 00:00:24+0000,-41.21,-48.01,-32.80,-46.77,-51.08,-51.68
2021/09/10 00:01:29+0000,-40.61,-48.13,-32.69,-48.57,-51.25,-51.77
2021/09/10 00:02:21+0000,-40.73,-48.37,-32.43,-46.79,-50.62,-50.93
2021/09/10 00:03:13+0000,-42.60,-47.61,-32.46,-48.67,-50.44,-50.95
2021/09/10 00:04:05+0000,-40.92,-47.74,-32.31,-48.56,-50.36,-51.00
2021/09/10 00:04:57+0000,-40.94,-47.67,-32.34,-48.22,-50.02,-51.27
2021/09/10 00:05:49+0000,-42.08,-48.01,-32.33,-48.90,-50.64,-50.57
2021/09/10 00:06:41+0000,-42.51,-47.72,-33.21,-46.63,-50.43,-50.71
2021/09/10 00:07:33+0000,-40.22,-47.87,-32.71,-48.96,-49.60,-51.60
2021/09/10 00:08:25+0000,-40.48,-48.49,-31.85,-47.57,-50.64,-51.19
2021/09/10 00:09:17+0000,-40.43,-47.89,-31.75,-48.62,-50.26,-51.38
2021/09/10 00:10:09+0000,-41.29,-47.34,-32.78,-48.16,-50.29,-51.41
2021/09/10 00:11:09+0000,-42.59,-47.89,-32.41,-48.53,-50.73,-50.86
2021/09/10 00:12:01+0000,-41.12,-48.22,-32.42,-48.37,-49.76,-51.23
2021/09/10 00:12:53+0000,-41.78,-47.97,-32.90,-48.00,-50.04,-50.78
2021/09/10 00:13:45+0000,-42.41,-47.35,-32.65,-48.30,-50.09,-50.47
2021/09/10 00:14:37+0000,-41.65,-48.38,-32.56,-48.81,-50.03,-51.16
2021/09/10 00:15:29+0000,-41.11,-47.98,-32.46,-48.11,-50.65,-51.41
2021/09/10 00:16:21+0000,-41.89,-48.58,-32.32,-48.62,-50.53,-51.07
2021/09/10 00:17:13+0000,-40.49,-47.82,-32.42,-48.65,-50.36,-51.08
2021/09/10 00:18:05+0000,-41.87,-47.39,-32.16,-49.00,-49.99,-50.59
2021/09/10 00:18:57+0000,-41.77,-48.04,-32.52,-48.19,-49.93,-51.05
2021/09/10 00:19:50+0000,-40.82,-48.38,-32.72,-48.17,-50.22,-51.43
2021/09/10 00:20:42+0000,-42.29,-46.89,-32.96,-48.33,-50.36,-50.67
2021/09/10 00:21:42+0000,-38.41,-47.03,-32.53,-49.26,-50.26,-50.89
2021/09/10 00:22:34+0000,-40.68,-47.86,-32.96,-48.71,-50.54,-51.25
2021/09/10 00:23:26+0000,-40.80,-47.81,-32.90,-48.34,-50.57,-50.89
2021/09/10 00:24:18+0000,-40.40,-47.74,-33.14,-48.71,-50.43,-51.47
2021/09/10 00:25:10+0000,-40.82,-48.63,-32.87,-48.24,-50.59,-50.92
2021/09/10 00:26:02+0000,-41.04,-48.21,-32.31,-47.80,-50.38,-50.61
2021/09/10 00:26:54+0000,-41.81,-48.78,-33.09,-47.78,-50.08,-50.75
2021/09/10 00:27:46+0000,-41.09,-49.04,-32.91,-48.62,-50.01,-50.76
2021/09/10 00:28:38+0000,-41.96,-48.19,-33.07,-48.40,-50.06,-51.59
2021/09/10 00:29:30+0000,-40.55,-48.77,-32.67,-48.64,-50.43,-50.87
2021/09/10 00:30:22+0000,-41.20,-49.00,-32.41,-47.97,-49.85,-50.94
2021/09/10 00:31:22+0000,-41.79,-48.53,-32.82,-47.82,-50.48,-51.01
2021/09/10 00:32:14+0000,-41.56,-48.11,-32.41,-49.09,-50.43,-51.18
2021/09/10 00:33:06+0000,-41.75,-48.62,-31.80,-47.39,-50.38,-51.04
2021/09/10 00:33:58+0000,-41.50,-48.83,-33.06,-47.76,-50.07,-51.68
2021/09/10 00:34:50+0000,-40.04,-48.24,-32.44,-48.16,-50.01,-51.04
2021/09/10 00:35:43+0000,-42.22,-48.07,-32.63,-46.07,-50.06,-51.13
2021/09/10 00:36:35+0000,-41.57,-48.07,-32.61,-48.11,-49.95,-50.65
2021/09/10 00:37:27+0000,-40.47,-48.53,-33.06,-48.40,-50.02,-50.90
2021/09/10 00:38:19+0000,-41.27,-47.79,-32.75,-48.79,-50.25,-50.89
2021/09/10 00:39:11+0000,-40.97,-48.94,-32.46,-48.30,-51.08,-51.48
2021/09/10 00:40:03+0000,-41.23,-48.86,-32.37,-49.13,-49.96,-51.00
2021/09/10 00:41:06+0000,-41.26,-48.56,-32.84,-49.34,-50.38,-50.96
2021/09/10 00:41:58+0000,-41.27,-48.09,-32.69,-47.22,-50.36,-50.99
2021/09/10 00:42:50+0000,-41.87,-48.71,-32.96,-49.09,-50.22,-51.35
2021/09/10 00:43:42+0000,-41.50,-48.58,-32.47,-48.93,-50.11,-50.39
2021/09/10 00:44:34+0000,-41.10,-49.28,-32.63,-49.03,-50.60,-51.27
2021/09/10 00:45:26+0000,-42.09,-48.23,-32.45,-47.31,-51.20,-50.86
2021/09/10 00:46:18+0000,-42.35,-47.54,-32.31,-49.21,-50.70,-50.64
2021/09/10 00:47:11+0000,-42.51,-47.34,-33.04,-48.31,-50.76,-51.12
2021/09/10 00:48:03+0000,-42.47,-47.91,-32.48,-47.37,-50.54,-51.17
2021/09/10 00:48:55+0000,-42.75,-47.69,-32.46,-47.87,-50.98,-51.45
2021/09/10 00:49:47+0000,-41.46,-48.69,-31.99,-48.41,-50.02,-50.77
2021/09/10 00:50:39+0000,-42.25,-48.67,-32.47,-49.09,-50.41,-50.14
2021/09/10 00:51:39+0000,-41.54,-48.36,-32.61,-48.43,-50.54,-50.70
2021/09/10 00:52:31+0000,-41.48,-48.87,-32.43,-48.49,-50.58,-50.77
2021/09/10 00:53:23+0000,-41.73,-48.48,-32.18,-48.36,-50.31,-51.19
2021/09/10 00:54:15+0000,-41.09,-49.28,-32.08,-48.18,-50.61,-50.78
2021/09/10 00:55:07+0000,-42.05,-48.73,-32.68,-48.76,-50.60,-50.43
2021/09/10 00:55:59+0000,-41.45,-48.63,-32.21,-47.68,-50.73,-50.63
2021/09/10 00:56:51+0000,-41.66,-48.84,-32.08,-47.66,-50.55,-50.64
2021/09/10 00:57:43+0000,-41.15,-47.82,-32.54,-48.72,-49.70,-51.43
2021/09/10 00:58:35+0000,-41.34,-48.22,-32.54,-49.22,-50.40,-51.39
2021/09/10 00:59:27+0000,-41.43,-48.54,-31.88,-45.74,-50.93,-50.98
2021/09/10 01:00:19+0000,-40.99,-48.72,-32.45,-48.81,-50.46,-50.64
2021/09/10 01:01:21+0000,-41.22,-48.36,-32.21,-48.28,-50.39,-50.25
2021/09/10 01:02:13+0000,-41.34,-48.19,-32.99,-46.37,-50.21,-51.26
2021/09/10 01:03:05+0000,-41.49,-48.58,-33.33,-47.62,-50.43,-51.12
2021/09/10 01:03:57+0000,-41.69,-48.14,-32.73,-48.64,-50.28,-50.69
2021/09/10 01:04:49+0000,-41.32,-48.29,-33.09,-48.43,-50.35,-50.32
2021/09/10 01:05:41+0000,-41.58,-48.81,-32.46,-49.13,-50.54,-50.58
2021/09/10 01:06:33+0000,-41.92,-47.54,-32.99,-48.52,-50.36,-51.01
2021/09/10 01:07:25+0000,-40.97,-48.31,-33.41,-47.57,-50.34,-50.83
2021/09/10 01:08:17+0000,-41.98,-48.11,-33.24,-49.07,-49.76,-51.13
2021/09/10 01:09:09+0000,-41.64,-48.05,-32.58,-48.46,-50.85,-50.95
2021/09/10 01:10:01+0000,-41.41,-48.14,-32.55,-48.29,-50.45,-51.13
2021/09/10 01:10:59+0000,-41.69,-47.96,-32.84,-48.59,-50.30,-50.63
2021/09/10 01:11:51+0000,-41.57,-48.99,-33.13,-47.23,-50.52,-51.23
2021/09/10 01:12:43+0000,-41.77,-47.96,-32.81,-48.16,-50.44,-50.65
2021/09/10 01:13:35+0000,-40.61,-48.98,-32.56,-48.40,-51.08,-51.30
2021/09/10 01:14:27+0000,-40.71,-47.91,-32.75,-48.23,-51.19,-50.43
2021/09/10 01:15:20+0000,-40.68,-48.31,-32.51,-48.60,-50.84,-50.88
2021/09/10 01:16:12+0000,-41.38,-48.02,-33.12,-48.52,-50.61,-51.25
2021/09/10 01:17:04+0000,-40.33,-47.31,-32.59,-48.82,-50.54,-51.33
2021/09/10 01:17:56+0000,-40.72,-47.73,-33.23,-48.17,-50.98,-50.73
2021/09/10 01:18:48+0000,-40.90,-48.03,-32.19,-48.64,-51.24,-50.66
2021/09/10 01:19:40+0000,-41.34,-47.04,-32.54,-48.20,-50.69,-51.06
2021/09/10 01:20:32+0000,-41.06,-47.34,-32.64,-48.50,-51.02,-51.35
2021/09/10 01:21:37+0000,-41.75,-48.21,-32.73,-47.82,-50.63,-51.17
2021/09/10 01:22:29+0000,-41.61,-48.15,-33.04,-47.63,-50.85,-51.21
2021/09/10 01:23:21+0000,-42.32,-48.82,-32.57,-48.27,-51.00,-50.93
2021/09/10 01:24:14+0000,-42.04,-47.29,-32.34,-48.62,-50.57,-51.15
2021/09/10 01:25:06+0000,-42.98,-49.16,-33.06,-48.50,-50.66,-50.58
2021/09/10 01:25:58+0000,-42.25,-47.69,-32.47,-47.53,-50.22,-50.79
2021/09/10 01:26:50+0000,-42.60,-48.67,-32.54,-48.85,-50.08,-50.95
2021/09/10 01:27:42+0000,-40.24,-48.40,-32.88,-48.46,-51.16,-51.49
2021/09/10 01:28:34+0000,-42.78,-48.80,-32.34,-49.09,-50.36,-51.48
2021/09/10 01:29:26+0000,-41.72,-47.45,-32.26,-47.89,-50.79,-51.30
2021/09/10 01:30:18+0000,-41.64,-47.84,-33.37,-48.93,-50.48,-51.37
2021/09/10 01:31:18+0000,-41.81,-48.52,-32.39,-49.24,-51.37,-51.10
2021/09/10 01:32:10+0000,-41.32,-47.36,-33.12,-48.95,-51.06,-51.10
2021/09/10 01:33:02+0000,-42.15,-48.87,-32.78,-47.90,-50.57,-51.32
2021/09/10 01:33:54+0000,-40.57,-48.46,-32.87,-47.44,-50.65,-51.37
2021/09/10 01:34:46+0000,-37.94,-48.01,-33.20,-48.87,-50.53,-51.20
2021/09/10 01:35:38+0000,-41.52,-47.15,-33.44,-48.47,-50.04,-50.57
2021/09/10 01:36:30+0000,-41.96,-45.74,-33.05,-47.47,-50.23,-51.25
2021/09/10 01:37:22+0000,-41.11,-46.27,-32.59,-46.69,-50.97,-50.99
2021/09/10 01:38:15+0000,-41.16,-46.68,-33.14,-48.65,-50.46,-50.91
2021/09/10 01:39:07+0000,-41.60,-49.07,-33.14,-48.87,-50.90,-51.02
2021/09/10 01:39:59+0000,-41.90,-44.93,-33.55,-47.64,-50.61,-50.67
2021/09/10 01:40:51+0000,-42.78,-49.07,-33.20,-48.33,-50.98,-51.32
2021/09/10 01:41:54+0000,-41.58,-48.02,-33.61,-48.06,-50.92,-51.40
2021/09/10 01:42:46+0000,-41.53,-46.89,-32.92,-49.03,-50.86,-51.48
2021/09/10 01:43:38+0000,-42.45,-46.52,-33.04,-48.56,-50.59,-51.20
2021/09/10 01:44:30+0000,-42.57,-44.00,-33.04,-47.27,-50.61,-51.04
2021/09/10 01:45:22+0000,-41.40,-49.30,-33.02,-48.21,-50.55,-50.97
2021/09/10 01:46:14+0000,-40.81,-47.00,-32.88,-49.12,-50.36,-51.36
2021/09/10 01:47:06+0000,-40.86,-49.01,-33.53,-48.95,-50.23,-50.53
2021/09/10 01:47:58+0000,-41.47,-45.38,-33.39,-47.15,-50.49,-50.99
2021/09/10 01:48:50+0000,-41.43,-48.83,-33.00,-47.70,-50.40,-50.91
2021/09/10 01:49:42+0000,-42.34,-47.82,-33.25,-48.74,-50.67,-50.54
2021/09/10 01:50:34+0000,-42.18,-45.11,-32.86,-48.45,-51.31,-51.21
2021/09/10 01:51:36+0000,-42.04,-49.19,-33.32,-48.48,-50.46,-50.87
2021/09/10 01:52:28+0000,-41.88,-46.83,-33.03,-47.83,-50.77,-51.48
2021/09/10 01:53:20+0000,-42.54,-47.26,-32.82,-48.91,-50.99,-51.34
2021/09/10 01:54:12+0000,-43.37,-46.55,-33.21,-47.61,-50.44,-51.36
2021/09/10 01:55:04+0000,-41.84,-44.96,-33.20,-49.01,-50.61,-51.09
2021/09/10 01:55:56+0000,-41.80,-47.79,-33.15,-47.70,-49.97,-51.16
2021/09/10 01:56:48+0000,-41.87,-45.85,-33.47,-47.79,-50.66,-50.73
2021/09/10 01:57:40+0000,-39.73,-46.42,-33.06,-48.38,-51.31,-50.95
2021/09/10 01:58:32+0000,-40.60,-47.01,-33.01,-48.08,-50.16,-51.74
2021/09/10 01:59:24+0000,-41.18,-47.37,-33.29,-47.45,-50.87,-51.45
2021/09/10 02:00:16+0000,-39.96,-47.50,-33.08,-48.13,-51.10,-50.79
2021/09/10 02:01:20+0000,-41.10,-49.03,-32.85,-47.41,-50.51,-50.49
2021/09/10 02:02:12+0000,-40.12,-47.36,-32.90,-48.08,-50.01,-50.75
2021/09/10 02:03:04+0000,-40.28,-47.21,-32.95,-48.17,-50.17,-51.11
2021/09/10 02:03:56+0000,-39.09,-46.59,-33.35,-47.67,-50.27,-51.24
2021/09/10 02:04:48+0000,-39.43,-46.79,-32.96,-48.70,-50.72,-51.35
2021/09/10 02:05:40+0000,-40.44,-47.67,-32.56,-47.91,-50.40,-51.33
2021/09/10 02:06:32+0000,-40.45,-45.95,-32.52,-48.94,-50.70,-51.46
2021/09/10 02:07:24+0000,-41.14,-46.60,-33.04,-47.13,-50.92,-51.34
2021/09/10 02:08:16+0000,-40.86,-47.62,-32.85,-48.40,-50.17,-51.03
2021/09/10 02:09:08+0000,-40.25,-47.11,-33.13,-48.03,-50.21,-50.90
2021/09/10 02:10:01+0000,-41.08,-47.12,-32.68,-47.12,-50.69,-51.13
2021/09/10 02:11:00+0000,-40.13,-46.88,-32.71,-47.25,-50.15,-51.48
2021/09/10 02:11:52+0000,-39.44,-46.42,-33.12,-47.23,-50.20,-51.21
2021/09/10 02:12:44+0000,-40.63,-46.11,-33.38,-48.06,-50.78,-51.59
2021/09/10 02:13:36+0000,-39.56,-49.01,-32.38,-48.14,-50.61,-51.11
2021/09/10 02:14:28+0000,-41.32,-47.21,-32.68,-46.65,-51.18,-50.92
2021/09/10 02:15:20+0000,-39.68,-48.83,-33.10,-46.76,-50.75,-51.16
2021/09/10 02:16:12+0000,-39.40,-47.73,-32.57,-46.77,-50.87,-51.15
2021/09/10 02:17:04+0000,-40.47,-47.88,-32.67,-47.73,-50.50,-51.14
2021/09/10 02:17:56+0000,-39.67,-47.25,-32.63,-46.97,-50.77,-51.12
2021/09/10 02:18:48+0000,-40.37,-46.92,-32.92,-48.89,-50.57,-51.30
2021/09/10 02:19:40+0000,-40.73,-46.47,-32.63,-46.95,-51.33,-51.15
2021/09/10 02:20:32+0000,-41.58,-47.36,-33.23,-48.67,-50.42,-51.16
2021/09/10 02:21:30+0000,-39.29,-47.05,-32.50,-46.69,-50.26,-50.74
2021/09/10 02:22:23+0000,-38.23,-46.28,-33.09,-47.18,-50.19,-51.54
2021/09/10 02:23:15+0000,-39.62,-46.46,-31.81,-47.08,-50.65,-50.87
2021/09/10 02:24:07+0000,-38.85,-49.22,-32.76,-47.69,-50.82,-50.97
2021/09/10 02:24:59+0000,-40.10,-45.61,-32.79,-46.48,-49.99,-51.22
2021/09/10 02:25:51+0000,-39.58,-48.96,-32.48,-46.82,-50.03,-51.25
2021/09/10 02:26:43+0000,-40.19,-46.34,-32.66,-46.82,-50.88,-51.53
2021/09/10 02:27:35+0000,-40.74,-48.93,-32.36,-48.69,-51.21,-51.06
2021/09/10 02:28:27+0000,-39.90,-45.43,-32.93,-47.07,-50.55,-51.30
2021/09/10 02:29:19+0000,-39.99,-44.55,-32.75,-48.39,-50.35,-51.00
2021/09/10 02:30:11+0000,-41.39,-45.75,-33.22,-48.09,-51.26,-51.14
2021/09/10 02:31:14+0000,-40.14,-44.88,-32.55,-47.29,-50.68,-51.46
2021/09/10 02:32:07+0000,-38.98,-49.08,-32.30,-47.99,-50.29,-51.19
2021/09/10 02:32:59+0000,-39.74,-47.39,-32.29,-44.43,-50.15,-51.12
2021/09/10 02:33:51+0000,-40.49,-48.95,-33.09,-47.70,-50.20,-50.86
2021/09/10 02:34:43+0000,-41.58,-43.22,-32.34,-48.13,-50.61,-50.76
2021/09/10 02:35:35+0000,-40.59,-47.65,-32.52,-48.63,-50.61,-50.91
2021/09/10 02:36:27+0000,-40.30,-47.17,-32.42,-44.08,-50.67,-51.25
2021/09/10 02:37:19+0000,-40.64,-46.33,-32.30,-48.29,-50.81,-50.85
2021/09/10 02:38:11+0000,-37.51,-45.46,-33.20,-48.30,-50.54,-51.14
2021/09/10 02:39:03+0000,-40.27,-46.86,-32.89,-47.73,-50.64,-50.77
2021/09/10 02:39:55+0000,-39.29,-47.81,-32.54,-46.69,-50.48,-51.14
2021/09/10 02:40:47+0000,-40.84,-44.89,-32.68,-48.26,-50.74,-51.28
2021/09/10 02:41:47+0000,-40.94,-44.45,-32.40,-48.29,-50.52,-51.10
2021/09/10 02:42:39+0000,-40.23,-44.32,-32.40,-48.23,-50.74,-50.79
2021/09/10 02:43:31+0000,-40.77,-46.94,-32.45,-47.22,-50.10,-51.37
2021/09/10 02:44:23+0000,-41.13,-47.42,-32.38,-47.56,-50.61,-51.45
2021/09/10 02:45:15+0000,-40.68,-46.08,-32.81,-48.18,-50.69,-51.49
2021/09/10 02:46:07+0000,-39.74,-49.07,-32.82,-48.38,-50.50,-51.00
2021/09/10 02:46:59+0000,-40.68,-46.77,-32.30,-46.92,-50.41,-51.26
2021/09/10 02:47:51+0000,-40.50,-48.63,-32.29,-48.61,-50.27,-50.89
2021/09/10 02:48:43+0000,-41.03,-47.32,-32.18,-48.69,-50.37,-51.29
2021/09/10 02:49:35+0000,-39.48,-47.35,-32.91,-48.23,-50.22,-50.63
2021/09/10 02:50:27+0000,-40.56,-46.56,-32.58,-48.14,-50.53,-51.07
2021/09/10 02:51:28+0000,-41.00,-46.55,-32.71,-47.36,-50.65,-50.98
2021/09/10 02:52:20+0000,-40.17,-44.82,-33.14,-47.91,-50.56,-50.92
2021/09/10 02:53:12+0000,-39.39,-46.52,-32.35,-47.88,-50.35,-50.54
2021/09/10 02:54:04+0000,-40.21,-46.77,-32.60,-48.47,-50.30,-50.73
2021/09/10 02:54:56+0000,-40.50,-46.14,-32.57,-48.42,-50.55,-51.12
2021/09/10 02:55:48+0000,-40.08,-46.58,-32.40,-47.86,-50.52,-50.34
2021/09/10 02:56:40+0000,-40.67,-47.10,-32.99,-48.51,-50.09,-50.76
2021/09/10 02:57:32+0000,-40.71,-47.53,-32.65,-47.93,-50.75,-50.58
2021/09/10 02:58:24+0000,-39.97,-46.64,-32.80,-47.90,-50.85,-50.40
2021/09/10 02:59:16+0000,-40.22,-45.49,-32.07,-48.01,-50.61,-50.84
2021/09/10 03:00:08+0000,-39.81,-46.49,-32.26,-48.13,-50.58,-51.29
2021/09/10 03:01:09+0000,-40.57,-47.04,-32.31,-47.88,-50.24,-50.78
2021/09/10 03:02:01+0000,-39.80,-46.87,-32.15,-47.93,-50.74,-50.92
2021/09/10 03:02:53+0000,-40.08,-46.49,-32.82,-47.81,-50.05,-50.79
2021/09/10 03:03:45+0000,-39.56,-45.46,-32.20,-48.04,-50.41,-51.04
2021/09/10 03:04:37+0000,-39.95,-47.17,-32.26,-48.19,-50.55,-50.64
2021/09/10 03:05:30+0000,-40.12,-46.74,-32.51,-47.70,-50.64,-50.46
2021/09/10 03:06:22+0000,-38.99,-48.11,-32.79,-48.35,-50.69,-51.20
2021/09/10 03:07:14+0000,-39.08,-45.87,-32.42,-48.26,-50.91,-50.67
2021/09/10 03:08:06+0000,-39.05,-48.53,-32.69,-48.73,-50.71,-50.00
2021/09/10 03:08:58+0000,-39.17,-43.28,-32.70,-47.89,-50.18,-50.78
2021/09/10 03:09:50+0000,-39.67,-47.20,-32.31,-47.69,-50.07,-50.52
2021/09/10 03:10:42+0000,-32.56,-43.90,-32.66,-48.45,-50.34,-50.36
2021/09/10 03:11:42+0000,-34.48,-44.08,-32.78,-48.32,-50.82,-50.16
2021/09/10 03:12:34+0000,-33.10,-44.84,-32.78,-48.05,-49.84,-50.28
2021/09/10 03:13:27+0000,-39.15,-45.81,-32.34,-48.10,-50.31,-50.81
2021/09/10 03:14:19+0000,-38.85,-45.75,-32.98,-48.24,-50.53,-50.39
2021/09/10 03:15:11+0000,-39.24,-45.59,-32.69,-48.18,-50.31,-51.48
2021/09/10 03:16:03+0000,-37.83,-45.83,-32.25,-48.13,-50.09,-50.70
2021/09/10 03:16:55+0000,-39.51,-42.88,-32.32,-47.21,-50.73,-50.49
2021/09/10 03:17:47+0000,-38.76,-45.55,-32.44,-48.15,-50.39,-50.75
2021/09/10 03:18:39+0000,-35.98,-45.38,-32.30,-47.97,-51.00,-50.74
2021/09/10 03:19:31+0000,-35.74,-42.59,-32.80,-47.16,-50.52,-50.59
2021/09/10 03:20:23+0000,-40.14,-42.44,-32.22,-47.82,-50.26,-51.37
2021/09/10 03:21:23+0000,-39.02,-45.22,-32.92,-48.15,-50.34,-50.28
2021/09/10 03:22:15+0000,-40.17,-44.07,-32.89,-47.52,-50.64,-50.77
2021/09/10 03:23:07+0000,-39.90,-45.23,-32.65,-48.13,-49.90,-51.12
2021/09/10 03:23:59+0000,-39.69,-45.23,-33.01,-47.23,-50.25,-50.66
2021/09/10 03:24:51+0000,-39.76,-47.77,-32.32,-48.22,-50.44,-51.12
2021/09/10 03:25:43+0000,-39.31,-44.41,-32.66,-48.13,-50.70,-50.50
2021/09/10 03:26:35+0000,-39.51,-47.59,-32.65,-47.88,-50.24,-50.46
2021/09/10 03:27:27+0000,-38.52,-45.02,-32.70,-47.78,-50.73,-50.40
2021/09/10 03:28:19+0000,-39.64,-44.00,-33.27,-48.59,-50.28,-50.85
2021/09/10 03:29:11+0000,-40.18,-44.65,-32.60,-47.89,-50.47,-50.20
2021/09/10 03:30:04+0000,-40.64,-45.96,-32.94,-48.18,-51.26,-50.29
2021/09/10 03:31:07+0000,-39.94,-47.22,-32.72,-47.98,-50.18,-50.74
2021/09/10 03:31:59+0000,-40.82,-45.67,-32.70,-47.91,-50.20,-50.38
2021/09/10 03:32:51+0000,-36.76,-47.70,-32.62,-47.28,-50.63,-50.53
2021/09/10 03:33:43+0000,-38.38,-47.16,-32.87,-48.10,-50.30,-50.26
2021/09/10 03:34:35+0000,-39.08,-47.37,-32.95,-47.44,-50.83,-50.91
2021/09/10 03:35:27+0000,-38.81,-46.29,-32.37,-48.07,-50.66,-50.95
2021/09/10 03:36:19+0000,-36.82,-44.26,-32.62,-48.12,-49.63,-50.89
2021/09/10 03:37:11+0000,-40.01,-44.74,-33.21,-47.86,-50.32,-50.70
2021/09/10 03:38:03+0000,-39.57,-45.61,-32.88,-48.10,-50.81,-50.78
2021/09/10 03:38:55+0000,-39.35,-46.46,-33.15,-47.86,-50.39,-50.67
2021/09/10 03:39:47+0000,-39.28,-45.50,-32.89,-48.22,-50.13,-50.70
2021/09/10 03:40:40+0000,-40.52,-44.95,-32.98,-46.69,-50.20,-50.68
2021/09/10 03:41:41+0000,-39.48,-45.56,-32.26,-48.21,-50.51,-50.62
2021/09/10 03:42:33+0000,-38.83,-45.83,-33.00,-48.88,-50.44,-50.83
2021/09/10 03:43:25+0000,-38.70,-45.86,-33.02,-46.72,-50.04,-50.97
2021/09/10 03:44:17+0000,-38.65,-45.29,-32.46,-48.85,-50.88,-51.18
2021/09/10 03:45:09+0000,-40.21,-44.73,-32.43,-48.35,-50.09,-51.22
2021/09/10 03:46:01+0000,-40.63,-45.65,-32.67,-47.74,-50.46,-51.23
2021/09/10 03:46:53+0000,-40.02,-46.68,-32.32,-47.35,-50.77,-50.88
2021/09/10 03:47:45+0000,-40.09,-45.45,-32.26,-48.84,-50.23,-50.68
2021/09/10 03:48:37+0000,-40.14,-48.89,-32.93,-49.57,-50.18,-50.82
2021/09/10 03:49:29+0000,-41.42,-46.18,-33.34,-47.39,-50.23,-50.88
2021/09/10 03:50:21+0000,-39.15,-47.93,-32.98,-48.71,-49.75,-50.81
2021/09/10 03:51:23+0000,-39.46,-47.37,-32.19,-48.65,-50.53,-51.17
2021/09/10 03:52:15+0000,-40.04,-46.75,-32.73,-49.17,-50.04,-50.61
2021/09/10 03:53:07+0000,-39.28,-48.97,-33.60,-47.70,-50.08,-50.40
2021/09/10 03:53:59+0000,-39.54,-43.93,-32.82,-46.45,-49.97,-50.94
2021/09/10 03:54:51+0000,-39.36,-47.98,-32.48,-47.01,-49.47,-50.99
2021/09/10 03:55:43+0000,-38.84,-45.68,-32.56,-47.94,-50.06,-50.68
2021/09/10 03:56:35+0000,-39.19,-46.04,-32.38,-48.29,-49.61,-50.76
2021/09/10 03:57:27+0000,-37.27,-45.16,-32.09,-47.20,-50.27,-50.34
2021/09/10 03:58:19+0000,-39.49,-43.46,-32.23,-47.95,-49.75,-51.13
2021/09/10 03:59:11+0000,-38.94,-45.03,-32.35,-48.05,-49.92,-50.37
2021/09/10 04:00:03+0000,-39.78,-45.59,-33.07,-48.31,-49.67,-50.33
2021/09/10 04:01:06+0000,-38.61,-47.26,-33.72,-48.17,-49.66,-51.02
2021/09/10 04:01:58+0000,-39.84,-46.20,-32.67,-48.19,-50.13,-50.96
2021/09/10 04:02:50+0000,-38.40,-47.54,-32.81,-47.84,-50.45,-50.43
2021/09/10 04:03:42+0000,-38.74,-45.29,-32.54,-49.00,-49.97,-50.76
2021/09/10 04:04:34+0000,-39.26,-45.39,-33.20,-48.79,-49.81,-50.53
2021/09/10 04:05:26+0000,-38.52,-45.56,-32.89,-47.78,-50.28,-50.23
2021/09/10 04:06:18+0000,-38.22,-45.40,-32.56,-48.03,-50.37,-50.57
2021/09/10 04:07:10+0000,-37.35,-45.20,-32.91,-48.81,-50.06,-50.54
2021/09/10 04:08:02+0000,-36.46,-44.12,-32.82,-48.70,-49.64,-51.13
2021/09/10 04:08:54+0000,-36.95,-44.57,-33.36,-48.28,-49.74,-50.97
2021/09/10 04:09:46+0000,-38.97,-44.06,-32.53,-48.13,-50.07,-50.23
2021/09/10 04:10:38+0000,-38.47,-44.22,-33.20,-48.13,-49.16,-50.60
2021/09/10 04:11:40+0000,-40.36,-44.25,-32.79,-48.10,-49.93,-50.93
2021/09/10 04:12:32+0000,-38.17,-44.11,-33.18,-48.68,-49.44,-50.34
2021/09/10 04:13:24+0000,-39.31,-45.30,-32.82,-48.04,-50.57,-50.40
2021/09/10 04:14:16+0000,-36.88,-45.01,-32.71,-48.12,-49.91,-51.20
2021/09/10 04:15:08+0000,-39.03,-45.66,-32.60,-48.79,-49.39,-50.40
2021/09/10 04:16:00+0000,-41.45,-45.43,-32.87,-46.05,-50.36,-50.58
2021/09/10 04:16:52+0000,-37.73,-44.79,-32.74,-47.66,-49.87,-51.14
2021/09/10 04:17:44+0000,-40.29,-46.06,-32.87,-48.08,-49.60,-50.54
2021/09/10 04:18:36+0000,-39.19,-47.50,-32.46,-48.69,-50.05,-50.54
2021/09/10 04:19:28+0000,-40.48,-44.64,-33.43,-46.59,-49.80,-50.67
2021/09/10 04:20:21+0000,-37.05,-47.68,-32.66,-47.61,-49.74,-50.19
2021/09/10 04:21:21+0000,-35.38,-47.43,-32.22,-46.84,-50.67,-50.47
2021/09/10 04:22:13+0000,-40.40,-43.97,-32.55,-48.36,-50.13,-50.36
2021/09/10 04:23:05+0000,-41.01,-48.12,-32.53,-48.28,-49.78,-51.21
2021/09/10 04:23:57+0000,-32.28,-44.85,-32.25,-47.00,-50.26,-50.93
2021/09/10 04:24:49+0000,-35.48,-44.28,-32.48,-48.77,-49.48,-50.49
2021/09/10 04:25:41+0000,-35.68,-45.83,-32.77,-48.28,-50.01,-50.81
2021/09/10 04:26:33+0000,-34.72,-45.15,-32.09,-48.28,-50.69,-50.90
2021/09/10 04:27:25+0000,-39.94,-46.57,-32.81,-48.09,-49.77,-50.51
2021/09/10 04:28:17+0000,-39.19,-45.83,-32.73,-48.15,-49.30,-50.59
2021/09/10 04:29:09+0000,-36.66,-44.07,-32.45,-48.61,-49.47,-50.31
2021/09/10 04:30:02+0000,-37.44,-45.22,-32.56,-48.25,-49.81,-50.88
2021/09/10 04:31:02+0000,-37.93,-45.84,-32.17,-48.91,-49.87,-50.69
2021/09/10 04:31:54+0000,-40.49,-43.95,-32.80,-48.91,-49.77,-50.67
2021/09/10 04:32:46+0000,-40.26,-44.10,-33.09,-48.64,-50.19,-50.74
2021/09/10 04:33:38+0000,-38.82,-44.79,-32.99,-48.63,-49.58,-50.93
2021/09/10 04:34:30+0000,-41.43,-43.78,-32.52,-48.08,-49.83,-50.17
2021/09/10 04:35:22+0000,-36.45,-47.38,-32.65,-48.14,-50.63,-50.87
2021/09/10 04:36:14+0000,-40.14,-44.18,-32.83,-48.67,-49.79,-51.10
2021/09/10 04:37:06+0000,-36.04,-47.50,-32.94,-48.70,-49.39,-51.38
2021/09/10 04:37:58+0000,-37.63,-44.87,-32.81,-48.78,-49.74,-50.66
2021/09/10 04:38:50+0000,-39.37,-46.28,-32.61,-48.91,-50.23,-50.72
2021/09/10 04:39:42+0000,-32.91,-46.01,-32.48,-49.55,-50.07,-50.98
2021/09/10 04:40:34+0000,-32.29,-45.78,-32.07,-48.89,-49.49,-50.43
2021/09/10 04:41:35+0000,-36.24,-46.02,-32.20,-49.18,-49.86,-50.63
2021/09/10 04:42:27+0000,-40.60,-45.33,-32.16,-49.05,-49.76,-50.13